Flag for U.S.A. Weather past 2 weeks in Bristol, Tennessee, U.S.A.

Now
63 °F

Clear.


Feels Like: 63 °F
Forecast: 57 / 79 °F
Wind: 5 mph from East

Location: Abingdon-Southwest Abingdon

Current Time: Sep 20, 2014 at 12:32:33 AM

Latest Report: Sep 19, 2014 at 11:55 PM


Visibility: 10 mi

Pressure: 30.23 "Hg

Humidity: 84%

Dew point: 58 °F

Location of BristolLocation

Historic Weather in Bristol — Graph

°F

Bristol temperature yesterday

Maximum temperature yesterday: 80 °F (at 1:55 PM)
Minimum temperature yesterday: 57 °F (at 5:55 AM)
Average temperature yesterday: 67 °F

Past Weeks' High & Low Weather Summary

 TemperatureHumidityPressure
High84 °F (Sep 5, 2:15 PM)100% (Sep 4, 11:15 PM)30.29 "Hg (Sep 4, 11:15 PM)
Low54 °F (Sep 18, 6:55 AM)47% (Sep 19, 1:55 PM)29.97 "Hg (Sep 17, 3:55 PM)
Average69 °F84%30.14 "Hg
* Reported Sep 4 11:15 PM — Sep 19 11:15 PM, Bristol, Weather by CustomWeather, © 2014

Note: Actual official high and low records may vary slightly from our data, if they occured in-between our weather recording intervals... More about our weather records

Advertising

Bristol weather history for previous 24 hours

 ConditionsComfort  
Time TempWeatherWind HumidityBarometerVisibility
11:15 PM
Sep 19
62 °FClear.No wind85%30.23 "Hg10 mi
10:55 PM63 °FClear.3 mph81%30.23 "Hg10 mi
10:35 PM64 °FClear.5 mph78%30.23 "Hg10 mi
10:15 PM65 °FClear.No wind75%30.23 "Hg10 mi
9:55 PM66 °FClear.7 mph73%30.22 "Hg10 mi
9:15 PM66 °FClear.3 mph71%30.22 "Hg10 mi
8:55 PM65 °FPassing clouds.No wind78%30.21 "Hg10 mi
8:15 PM68 °FSunny.No wind66%30.20 "Hg10 mi
7:55 PM69 °FSunny.No wind64%30.19 "Hg10 mi
7:35 PM70 °FSunny.3 mph64%30.18 "Hg10 mi
7:15 PM71 °FSunny.7 mph62%30.18 "Hg10 mi
6:55 PM72 °FSunny.7 mph60%30.18 "Hg10 mi
6:35 PM73 °FSunny.6 mph59%30.18 "Hg10 mi
6:15 PM74 °FSunny.9 mph57%30.17 "Hg10 mi
5:55 PM75 °FScattered clouds.12 mph56%30.17 "Hg10 mi
5:15 PM76 °FScattered clouds.10 mph55%30.16 "Hg10 mi
4:55 PM77 °FScattered clouds.9 mph55%30.16 "Hg10 mi
4:35 PM77 °FSunny.8 mph55%30.16 "Hg10 mi
4:15 PM77 °FSunny.10 mph55%30.16 "Hg10 mi
3:55 PM77 °FSunny.9 mph55%30.16 "Hg10 mi
3:35 PM77 °FSunny.10 mph55%30.16 "Hg10 mi
3:15 PM77 °FSunny.10 mph53%30.16 "Hg10 mi
2:55 PM76 °FScattered clouds.12 mph55%30.16 "Hg10 mi
2:35 PM78 °FPartly sunny.10 mph49%30.16 "Hg10 mi
1:55 PM80 °FPartly sunny.7 mph47%30.16 "Hg10 mi
1:15 PM79 °FScattered clouds.7 mph50%30.17 "Hg10 mi
12:55 PM78 °FScattered clouds.7 mph52%30.17 "Hg10 mi
12:35 PM78 °FScattered clouds.7 mph54%30.17 "Hg10 mi
12:00 PM76 °FScattered clouds.7 mph61%30.18 "Hg10 mi
11:35 AM75 °FSunny.5 mph62%30.18 "Hg10 mi
11:15 AM74 °FSunny.9 mph64%30.18 "Hg10 mi
10:55 AM72 °FSunny.3 mph68%30.18 "Hg10 mi
10:35 AM72 °FSunny.8 mph69%30.17 "Hg10 mi
10:15 AM70 °FSunny.8 mph73%30.17 "Hg10 mi
9:55 AM69 °FSunny.8 mph75%30.17 "Hg10 mi
9:35 AM68 °FSunny.8 mph78%30.17 "Hg10 mi
9:15 AM65 °FSunny.8 mph83%30.17 "Hg10 mi
8:55 AM64 °FSunny.9 mph87%30.16 "Hg10 mi
8:35 AM62 °FSunny.7 mph91%30.16 "Hg10 mi
8:15 AM60 °FScattered clouds.6 mph94%30.16 "Hg7 mi
7:55 AM59 °FPassing clouds.6 mph94%30.16 "Hg10 mi
7:35 AM59 °FOvercast.No wind93%30.15 "Hg10 mi
7:15 AM60 °FOvercast.5 mph90%30.15 "Hg10 mi
6:55 AM59 °FPassing clouds.5 mph91%30.14 "Hg10 mi
6:35 AM59 °FClear.5 mph90%30.14 "Hg10 mi
6:15 AM58 °FPassing clouds.5 mph93%30.14 "Hg10 mi
5:55 AM57 °FClear.7 mph94%30.13 "Hg10 mi
5:35 AM58 °FPassing clouds.5 mph90%30.12 "Hg10 mi
5:15 AM59 °FClear.6 mph87%30.12 "Hg10 mi
4:55 AM59 °FClear.7 mph88%30.12 "Hg10 mi
4:35 AM58 °FClear.5 mph90%30.12 "Hg10 mi
4:15 AM58 °FClear.3 mph91%30.11 "Hg10 mi
3:55 AM58 °FClear.No wind89%30.11 "Hg10 mi
3:35 AM58 °FClear.No wind90%30.11 "Hg10 mi
3:15 AM59 °FClear.No wind89%30.11 "Hg10 mi
2:55 AM59 °FClear.No wind89%30.11 "Hg10 mi
2:35 AM59 °FClear.No wind89%30.11 "Hg10 mi
1:55 AM60 °FClear.No wind86%30.11 "Hg10 mi
1:35 AM61 °FClear.3 mph82%30.11 "Hg10 mi
1:15 AM62 °FClear.3 mph81%30.11 "Hg10 mi
12:55 AM61 °FPassing clouds.3 mph85%30.10 "Hg10 mi
12:35 AM62 °FPassing clouds.6 mph83%30.10 "Hg10 mi
12:15 AM63 °FOvercast.5 mph80%30.11 "Hg10 mi
Weather by CustomWeather, © 2014

See weather overviewHow to use our weather pages